Weather History for KHBG - August, 2014

Change the Weather History Date:

Monday, August 18, 2014

  Actual Average Record
Temperature  
Mean Temperature 85 °F 82 °F  
Max Temperature 96 °F 92 °F 101 °F (2000)
Min Temperature 74 °F 71 °F 58 °F (2004)
Degree Days  
Heating Degree Days 0 0  
Month to date heating degree days 0 0  
Since 1 June heating degree days 0 0  
Since 1 July heating degree days 0 0  
Cooling Degree Days 20 17  
Month to date cooling degree days 306 306  
Year to date cooling degree days 1628 1666  
Since 1 June cooling degree days 1252 1251  
Growing Degree Days 34 (Base 50)    
Moisture  
Dew Point 73 °F    
Average Humidity 69    
Maximum Humidity 94    
Minimum Humidity 43    
Precipitation  
Precipitation 0.09 in 0.15 in 3.33 in (1977)
Month to date precipitation 0.87 2.69  
Year to date precipitation 36.55 40.12  
Sea Level Pressure  
Sea Level Pressure 29.98 in    
Wind  
Wind Speed 3 mph (WSW)    
Max Wind Speed 30 mph    
Max Gust Speed 41 mph    
Visibility 8 miles    
Events Fog , Rain , Thunderstorm    
T = Trace of Precipitation, MM = Missing Value Source: NWS Daily Summary

Daily Weather History Graph

Daily Weather History Graph

Search for Another Location

Airport or City:

Trip Planner

Search our weather history database for the weather conditions in past years. The results will help you decide how hot, cold, wet, or windy it might be!

Date:

Astronomy

Aug. 18, 2014 Rise Set
Actual Time 6:24 AM CDT 7:36 PM CDT
Civil Twilight 5:59 AM CDT 8:01 PM CDT
Nautical Twilight 5:28 AM CDT 8:32 PM CDT
Astronomical Twilight 4:57 AM CDT 9:03 PM CDT
Moon 12:36 AM CDT (8/18) 2:34 PM CDT (8/18)
Length of Visible Light 14h 02m
Length of Day
13h 12m
Last Quarter, 38% of the Moon is Illuminated
Aug 18
Last Quarter
Aug 25
New
Sep 2
First Quarter
Sep 8
Full
Sep 15
Last Quarter

Hourly Weather History & Observations

Time (CDT) Temp. Heat Index Dew Point Humidity Pressure Visibility Wind Dir Wind Speed Gust Speed Precip Events Conditions
12:53 AM 75.0 °F - 73.0 °F 94% 30.01 in 10.0 mi Calm Calm - N/A   Clear
2:53 AM 73.9 °F - 71.1 °F 91% 29.99 in 10.0 mi Calm Calm - N/A   Clear
3:53 AM 73.9 °F - 71.1 °F 91% 29.99 in 10.0 mi Calm Calm - N/A   Clear
4:53 AM 75.0 °F - 72.0 °F 90% 29.99 in 10.0 mi Calm Calm - N/A   Clear
5:53 AM 75.0 °F - 73.0 °F 94% 29.99 in 10.0 mi SSW 4.6 mph - N/A   Clear
6:53 AM 75.0 °F - 72.0 °F 90% 30.00 in 10.0 mi South 3.5 mph - N/A   Clear
7:53 AM 78.1 °F - 73.9 °F 87% 30.01 in 10.0 mi SSW 4.6 mph - N/A   Clear
8:53 AM 82.9 °F 90.8 °F 75.9 °F 79% 30.03 in 10.0 mi West 6.9 mph - N/A   Scattered Clouds
9:01 AM 82.9 °F 90.8 °F 75.9 °F 79% 30.04 in 10.0 mi West 10.4 mph 19.6 mph N/A   Mostly Cloudy
9:53 AM 86.0 °F 95.1 °F 75.0 °F 70% 30.03 in 10.0 mi WSW 11.5 mph 19.6 mph N/A   Scattered Clouds
10:06 AM 87.1 °F 96.3 °F 75.0 °F 67% 30.04 in 10.0 mi WNW 12.7 mph - N/A   Mostly Cloudy
10:23 AM 88.0 °F 96.5 °F 73.9 °F 63% 30.04 in 10.0 mi WSW 9.2 mph - N/A   Scattered Clouds
10:53 AM 89.1 °F 96.0 °F 72.0 °F 57% 30.02 in 10.0 mi SW 13.8 mph - N/A   Clear
11:53 AM 93.0 °F 101.9 °F 73.0 °F 52% 30.00 in 10.0 mi SW 8.1 mph - N/A   Mostly Cloudy
12:53 PM 93.0 °F 100.1 °F 71.1 °F 49% 29.98 in 10.0 mi WSW 12.7 mph 35.7 mph N/A   Scattered Clouds
1:53 PM 95.0 °F 101.3 °F 70.0 °F 44% 29.95 in 10.0 mi North - - N/A Thunderstorm Mostly Cloudy
2:07 PM 91.0 °F 95.6 °F 69.1 °F 48% 29.98 in 10.0 mi WNW 29.9 mph 35.7 mph N/A Thunderstorm Thunderstorm
2:15 PM 81.0 °F 84.9 °F 71.1 °F 72% 29.96 in 1.8 mi NW 29.9 mph 41.4 mph 0.06 in Rain , Thunderstorm Light Thunderstorms and Rain
2:24 PM 81.0 °F 84.9 °F 71.1 °F 72% 29.98 in 1.5 mi West 16.1 mph 41.4 mph 0.09 in Rain , Thunderstorm Light Thunderstorms and Rain
2:37 PM 79.0 °F - 73.0 °F 82% 29.98 in 10.0 mi West 6.9 mph - 0.09 in Thunderstorm Scattered Clouds
2:44 PM 80.1 °F 84.2 °F 73.0 °F 79% 29.97 in 10.0 mi WSW 6.9 mph - 0.09 in   Partly Cloudy
2:53 PM 81.0 °F 84.9 °F 71.1 °F 72% 29.96 in 10.0 mi WSW 8.1 mph - 0.09 in   Clear
3:53 PM 82.0 °F 85.5 °F 69.1 °F 65% 29.96 in 10.0 mi Calm Calm - N/A   Clear
4:53 PM 82.0 °F 86.7 °F 72.0 °F 71% 29.95 in 10.0 mi Calm Calm - N/A   Clear
5:53 PM 82.9 °F 88.0 °F 72.0 °F 69% 29.93 in 10.0 mi Calm Calm - N/A   Clear
6:53 PM 82.9 °F 89.4 °F 73.9 °F 74% 29.93 in 10.0 mi Calm Calm - N/A   Clear
7:53 PM 80.1 °F 85.1 °F 75.0 °F 85% 29.94 in 10.0 mi South 3.5 mph - N/A   Clear
8:53 PM 79.0 °F - 75.0 °F 88% 29.94 in 10.0 mi Calm Calm - N/A   Clear
9:53 PM 78.1 °F - 75.0 °F 90% 29.94 in 10.0 mi Calm Calm - N/A   Clear
10:24 PM 77.0 °F - 75.0 °F 94% 29.95 in 1.8 mi Calm Calm - N/A   Clear
10:37 PM 77.0 °F - 75.0 °F 94% 29.95 in 0.5 mi Calm Calm - N/A Fog Fog
11:14 PM 77.0 °F - 75.0 °F 94% 29.96 in 0.2 mi Calm Calm - N/A Fog Fog
11:53 PM 77.0 °F - 75.0 °F 94% 29.95 in 0.8 mi Calm Calm - N/A   Clear